Location: ????????
(55.7667°N, 37.4833°E)
Time: 03:35:45
(UTC+00:00)

GP-B - Pass Details

Date: 19 May 2025
Orbit: 619 x 623 km, 89.8° (Epoch: 19 June)

Event Time Altitude Azimuth Distance (km) Brightness Sun altitude
Rises 21:30:13 0° 360° (N) 2,920 8.5 -14.3°
Reaches altitude 10° 21:32:26 10° 359° (N) 2,008 7.1 -14.3°
Maximum altitude 21:36:51 79° 274° (W) 641 3.1 -14.2°
Enters shadow 21:39:30 23° 190° (S) 1,316 4.1 -14.2°
